Location: The Saddle
(36.8333°N, 80.3417°W)
Time: 23:47:51
(UTC-05:00)

S-56A Canister/Altair - All Passes

Search period start: 09 December 2023 00:00
Search period end: 19 December 2023 00:00
Orbit: 640 x 2489 km, 38.8° (Epoch: 09 December)

Date Brightness Start Highest point End Pass type
(mag) Time Alt. Az. Time Alt. Az. Time Alt. Az.
09 Dec - 08:07:23 10° S 08:11:47 17° SSE 08:15:26 10° ESE daylight
09 Dec - 10:09:35 10° SW 10:15:33 55° SSE 10:20:09 10° E daylight
09 Dec - 12:14:18 10° W 12:19:11 70° N 12:23:39 10° E daylight
09 Dec - 14:18:25 10° WNW 14:22:54 87° SSW 14:27:57 10° ESE daylight
09 Dec - 16:22:15 10° W 16:26:22 28° SSW 16:31:33 10° SSE daylight
10 Dec - 07:34:20 10° S 07:38:35 15° SSE 07:42:08 10° ESE daylight
10 Dec - 09:36:06 10° SW 09:42:30 50° SSE 09:47:13 10° E daylight
10 Dec - 11:40:57 10° W 11:46:10 74° N 11:50:38 10° ENE daylight
10 Dec - 13:45:23 10° WNW 13:49:54 86° NNE 13:54:42 10° ESE daylight
10 Dec - 15:49:14 10° W 15:53:20 31° SSW 15:58:21 10° SSE daylight
11 Dec - 07:01:22 10° S 07:05:19 14° SE 07:08:43 10° ESE daylight
11 Dec - 09:02:34 10° SW 09:09:23 45° SSE 09:14:19 10° E daylight
11 Dec - 11:07:29 10° W 11:13:08 78° N 11:17:40 10° ENE daylight
11 Dec - 13:12:15 10° WNW 13:16:54 79° N 13:21:30 10° E daylight
11 Dec - 15:16:11 10° W 15:20:19 35° SSW 15:25:10 10° SE daylight
12 Dec - 06:28:33 10° SSE 06:32:02 13° SE 06:35:06 10° ESE visible
12 Dec - 08:28:59 10° SW 08:36:15 41° SSE 08:41:23 10° E daylight
12 Dec - 10:33:56 10° WSW 10:40:05 84° NNW 10:44:45 10° ENE daylight
12 Dec - 12:39:02 10° WNW 12:43:53 75° N 12:48:22 10° E daylight
12 Dec - 14:43:07 10° W 14:47:19 41° SSW 14:52:02 10° SE daylight
13 Dec - 05:56:00 10° SSE 05:58:41 11° SE 06:01:08 10° SE visible
13 Dec - 07:55:22 10° SW 08:03:02 38° SSE 08:08:27 10° E daylight
13 Dec - 10:00:18 10° WSW 10:06:59 90° NNW 10:11:51 10° ENE daylight
13 Dec - 12:05:43 10° W 12:10:52 72° N 12:15:19 10° E daylight
13 Dec - 14:10:02 10° W 14:14:21 47° SSW 14:18:56 10° SE daylight
13 Dec - 16:17:02 10° SW 16:17:36 10° SW 16:18:11 10° SSW daylight
14 Dec - 05:24:27 10° SSE 05:25:18 10° SE 05:26:07 10° SE visible
14 Dec - 07:21:43 10° SSW 07:29:47 35° SSE 07:35:29 10° E daylight
14 Dec - 09:26:33 10° WSW 09:33:53 84° SSE 09:38:59 10° ENE daylight
14 Dec - 11:32:18 10° W 11:37:49 70° N 11:42:19 10° E daylight
14 Dec - 13:36:52 10° W 13:41:23 55° SSW 13:45:53 10° SE daylight
14 Dec - 15:42:43 10° WSW 15:44:32 12° SW 15:46:28 10° SSW daylight
15 Dec - 06:48:04 10° SSW 06:56:29 33° SSE 07:02:28 10° E visible
15 Dec - 08:52:44 10° WSW 09:00:43 78° SSE 09:06:07 10° ENE daylight
15 Dec - 10:58:45 10° W 11:04:45 70° N 11:09:22 10° E daylight
15 Dec - 13:03:40 10° WNW 13:08:25 64° SSW 13:12:52 10° ESE daylight
15 Dec - 15:09:03 10° WSW 15:11:30 14° SW 15:14:06 10° S daylight
16 Dec - 06:14:25 10° SSW 06:23:07 30° SSE 06:29:23 10° E visible
16 Dec - 08:18:52 10° WSW 08:27:30 72° SSE 08:33:14 10° ENE daylight
16 Dec - 10:25:05 10° W 10:31:39 72° N 10:36:26 10° E daylight
16 Dec - 12:30:22 10° WNW 12:35:27 74° SSW 12:39:53 10° ESE daylight
16 Dec - 14:35:33 10° WSW 14:38:30 17° SW 14:41:34 10° S daylight
17 Dec - 05:40:47 10° SSW 05:49:41 28° SSE 05:56:14 10° E visible
17 Dec - 07:44:55 10° WSW 07:54:15 67° SSE 08:00:22 10° ENE daylight
17 Dec - 09:51:18 10° W 09:58:30 74° N 10:03:33 10° E daylight
17 Dec - 11:56:58 10° WNW 12:02:27 83° SSW 12:06:56 10° ESE daylight
17 Dec - 14:02:06 10° W 14:05:32 21° SW 14:08:57 10° SSE daylight
18 Dec - 05:07:12 10° SSW 05:16:13 26° SE 05:22:59 10° E visible
18 Dec - 07:10:56 10° SW 07:20:55 63° SSE 07:27:28 10° ENE daylight
18 Dec - 09:17:25 10° W 09:25:19 77° N 09:30:41 10° E daylight
18 Dec - 11:23:29 10° WNW 11:29:25 90° NNE 11:34:00 10° ESE daylight
18 Dec - 13:28:40 10° W 13:32:35 25° SSW 13:36:18 10° SSE daylight
